KUIPER-00030

导读

KUIPER-00030是美国亚马逊公司“柯伊伯(Kuiper)计划”卫星互联网项目中的一颗卫星。该卫星于2025年4月28日,随项目首批量产卫星从美国佛罗里达州卡纳维拉尔角发射入轨。柯伊伯计划旨在近地轨道部署超3200颗卫星,为全球提供高速低时延卫星宽带接入,KUIPER-00030将助力项目推进星座组网,填补全球网络覆盖缺口,与星链等项目形成市场竞争。

基本信息
目录编号:
63743
目录名称:
KUIPER-00030
国际标识:
2025-088V
轨道中心:
EARTH
卫星名称:
KUIPER-00030
卫星全名:
KUIPER-00030
卫星状态:
在轨 (已飞行502 天)
发射日期:
2025-04-28 UTC
国别 :
美国 (US)
星等 :
--
该卫星已列入 空间交会检测服务 Space Conjunction Data Service (SCDS) ,当前飞行风险评估等级: 无高风险
轨道信息
数据来源 国际轨道数据 AOE轨道数据
星历时间 2026-09-11T21:17:34+0800
13小时前
查看轨道信息
2026-09-10T11:00:00+0800
1天前
查看轨道信息
半长轴 7007.696km 7007.687km
偏心率 0.000046 0.0000814
轨道倾角 51.902° 51.905°
近地点辐角 104.963° 28.517°
升交点赤经 8.671° 14.991°
平近点角 255.138° 274.335°
近地点 629.236km 628.979km
远地点 629.882km 630.121km
周期 97.302分钟 97.302分钟
每日圈数 14.799256 14.799285
详细信息
使用方式:
暂无
2D轨道图
3D轨道图
轨道高度分析图
轨道倾角分析图
轨道综合分析图
查看轨道综合分析图
与全量物体交会距离演化趋势
与全量物体交会风险概率演化趋势